sat.trackr.live / text

‹ back to catalog

HORS 1

NORAD 57188 · 2023-091Y

PAYLOAD ACTIVE UNKNOWN

§ Identity

Operator
Country
CIS
Launch date
2023-06-27
Launch site
VOSTO
Launch vehicle
Mass (kg)
RCS (m²)

External: N2YO · Heavens-Above · Gunter

§ Orbital elements

Epoch: 2026-09-21T22:24:54.250272Z

Period
94.23 min
Inclination
97.4972°
Eccentricity
0.0010015
Mean motion
15.28161820 rev/d
Perigee alt
474.4 km
Apogee alt
488.2 km
Semi-major
6,859.4 km
B*
2.2336e-4
RAAN
329.0830°
Arg perigee
109.0565°
Mean anomaly
251.1760°
Rev number
17,908

§ Raw data

HORS 11 57188U 23091Y   26264.93396123  .00006063  00000+0  22336-3 0  99932 57188  97.4972 329.0830 0010015 109.0565 251.1760 15.28161820179088

JSON: /api/v1/satellites/57188 · /tle

For live sub-satellite position, see the globe view (requires WebGL).

§ Visibility from observer

Set your observer location to see the next 7 days of passes ≥ 10°. The values pass through the URL so the page stays shareable.

No JS? Fill the form by hand. The geolocation button needs JavaScript.

§ Radio — SatNOGS DB

ModeDescriptionDownlinkUplink
FSK Mode U - FSK 9K6 435.300 MHz
FSK Mode U - Transmitter 435.300 MHz

2 transmitters · refreshed weekly from db.satnogs.org